GEFSSGP_850_meantemp_000.txt.gz
Temperature
24 24 24 24 22 21 22 23 24 24 25 25 25 24 23 23 22 20 20 20 21 21 20 20 21 21 21 21 21 21 20 20 20 20 20 20 20 20 19 19 19 19 19 19 19 19 19 19 19
25 24 24 23 22 22 23 23 25 26 26 26 26 24 24 22 20 19 20 20 21 21 20 20 21 21 21 21 21 21 20 20 20 19 19 19 19 19 19 19 19 19 19 19 19 19 19 19 19
25 24 24 23 23 23 22 23 25 27 26 27 26 25 23 21 20 20 21 21 21 21 20 20 21 21 21 21 20 20 20 19 19 19 19 19 19 19 19 19 19 19 19 19 19 20 20 19 19
25 24 24 24 25 26 24 25 25 26 27 27 25 23 23 22 22 21 21 21 21 21 20 20 20 20 20 20 20 20 20 20 19 19 19 19 19 19 19 19 19 19 19 19 19 19 20 20 19
25 24 22 23 26 28 26 27 25 27 26 26 24 22 22 22 23 22 21 21 21 20 20 20 20 20 20 20 20 20 20 19 19 19 19 19 19 19 19 19 19 19 19 19 19 19 19 19 19
24 23 22 23 26 29 29 29 29 27 25 24 23 22 22 21 21 21 21 21 21 21 20 20 20 20 20 20 20 20 20 19 19 19 19 19 19 19 19 19 19 19 19 19 19 19 19 19 19
24 21 23 24 25 29 31 31 28 25 25 25 24 22 22 21 21 21 21 21 21 21 21 20 20 20 20 20 20 20 19 19 19 19 19 19 19 19 19 18 18 19 19 19 19 19 19 19 19
26 21 23 24 26 28 31 31 29 27 25 25 25 22 22 22 21 21 21 21 20 20 21 21 20 20 20 20 20 20 20 19 19 19 19 19 19 19 19 18 18 18 18 19 18 18 19 19 19
26 21 21 24 27 27 30 31 29 28 26 26 26 24 23 22 22 21 20 20 20 20 20 21 21 21 20 20 20 20 20 19 19 19 19 19 19 19 19 18 18 18 18 18 18 18 19 19 18
24 21 23 26 28 27 29 30 30 27 25 24 24 24 23 22 22 21 20 20 20 20 20 21 21 21 21 20 20 20 20 20 19 19 19 19 18 18 18 18 18 18 18 18 18 19 18 18 18
24 23 25 26 28 29 29 31 30 26 25 24 23 22 22 22 22 21 20 20 21 21 21 21 21 21 21 20 20 20 20 19 19 19 19 18 18 18 18 18 18 18 18 18 18 18 18 18 18
23 25 26 27 28 29 30 31 29 27 26 26 26 24 22 22 22 22 21 20 20 20 20 20 21 21 20 20 20 19 19 19 19 19 19 18 18 18 18 18 18 18 18 18 18 18 18 18 18
24 25 27 28 29 29 31 31 30 26 27 26 25 24 23 22 22 22 21 21 21 20 20 20 20 20 20 20 20 19 19 19 19 19 18 18 18 18 18 18 17 18 18 18 18 18 18 18 18
26 26 27 28 29 30 30 30 30 25 25 24 24 24 23 23 23 22 22 22 21 21 20 20 20 20 20 19 19 19 19 18 18 18 18 18 18 18 18 18 18 18 18 18 18 18 18 18 18
27 25 25 27 28 29 30 29 29 25 25 24 24 24 23 24 23 22 22 22 22 21 20 20 20 19 19 18 18 18 18 18 18 18 18 18 17 17 17 18 18 18 17 17 17 18 18 18 18
24 25 24 26 27 28 27 26 26 24 23 23 23 22 23 23 22 22 23 23 22 22 21 21 20 20 20 19 18 18 19 19 19 19 18 18 18 18 17 17 18 18 18 18 18 18 18 18 18
22 22 24 25 27 27 26 25 26 24 23 21 21 22 23 22 22 23 24 24 23 22 22 21 20 20 20 19 19 19 19 19 19 18 18 18 18 18 18 17 18 18 18 18 18 18 18 18 18
22 23 24 24 26 27 26 24 24 23 23 21 20 22 23 24 24 24 24 25 24 22 22 21 21 20 20 19 19 19 19 19 18 18 18 18 17 17 17 17 18 18 18 18 18 18 18 18 18
23 23 23 25 26 26 25 24 22 22 23 20 19 20 23 24 25 24 25 24 23 22 22 22 21 20 19 19 19 19 18 18 18 18 17 17 17 17 17 17 17 17 17 18 18 17 18 18 17
24 24 24 24 25 26 26 25 21 22 22 21 19 19 21 23 24 25 24 21 19 20 21 22 20 19 19 19 18 18 18 18 18 17 17 17 17 17 17 17 17 17 17 17 17 17 17 18 18
23 23 23 23 23 24 24 23 22 22 20 20 20 20 21 21 21 20 20 19 20 20 19 20 19 18 19 18 18 18 18 17 17 17 17 17 17 17 17 16 16 17 17 17 17 17 17 17 18
21 23 24 23 21 20 22 20 22 21 20 19 19 18 20 21 20 18 18 18 18 18 20 20 19 19 18 18 18 18 17 17 17 17 17 17 17 17 16 16 16 16 16 16 16 16 16 17 17
22 22 23 23 21 20 20 20 21 19 18 18 17 17 17 18 19 18 17 18 17 17 18 19 19 19 18 18 18 17 17 17 17 17 17 16 16 16 16 16 16 15 15 15 16 16 16 17 17
22 22 20 19 18 19 19 20 18 16 16 16 16 16 16 17 19 18 16 17 16 16 17 18 17 18 18 18 17 17 17 17 16 16 16 16 16 16 15 15 15 15 15 15 16 15 16 16 17
20 19 18 17 17 18 18 19 17 16 15 15 15 15 15 16 16 16 15 15 16 16 17 16 16 17 17 16 16 16 16 16 16 16 16 16 16 15 15 15 14 15 15 14 15 15 14 15 15
19 17 16 16 16 16 19 17 15 15 14 14 15 15 16 16 16 16 15 15 16 17 16 16 16 16 16 16 16 16 16 15 16 16 16 15 14 14 14 14 14 14 14 14 14 14 14 14 14
19 17 17 16 15 15 16 16 15 14 14 13 15 16 15 16 16 16 16 15 15 15 15 15 15 15 15 15 15 16 15 15 15 15 15 14 13 13 14 14 14 14 14 14 14 13 13 13 13
17 17 13 16 14 13 14 14 14 15 14 14 14 14 15 15 15 15 14 14 15 15 14 15 14 14 14 15 15 15 14 14 14 14 13 13 13 13 13 13 13 13 13 13 13 13 14 14 14
17 15 14 13 13 12 12 13 14 14 13 14 14 15 14 13 13 13 14 14 14 14 14 14 14 14 14 14 14 14 14 13 13 13 13 13 13 13 13 13 13 13 13 13 13 13 13 13 13
18 15 13 13 13 11 11 11 14 13 12 13 14 14 13 14 15 15 14 14 14 14 14 14 14 14 14 14 14 14 13 13 13 13 13 13 12 12 12 12 12 12 12 12 12 12 12 12 12

GEFSSGP_850_meantemp_006.txt.gz
Temperature
23 23 22 21 20 20 23 23 23 24 24 24 24 24 23 21 21 21 21 22 21 21 20 20 20 20 20 20 20 20 20 20 19 19 19 19 19 19 19 19 19 19 19 19 19 19 19 19 19
24 23 22 21 21 22 23 24 23 24 24 24 24 23 21 20 20 21 21 21 21 21 21 21 21 20 20 20 20 20 20 20 20 20 20 20 20 20 20 19 19 19 19 19 19 19 19 19 19
24 23 22 20 22 23 25 25 24 25 25 25 23 22 21 20 20 21 21 21 21 21 21 21 21 21 21 20 20 20 20 20 20 20 20 20 19 19 19 19 19 19 19 19 19 19 19 19 19
24 23 23 21 24 24 25 25 24 24 24 24 23 21 20 21 22 22 21 21 21 21 21 21 21 21 21 21 20 20 20 20 20 20 20 20 20 19 19 19 19 19 19 19 19 19 19 19 19
24 24 21 21 23 25 25 25 25 25 24 23 22 21 20 21 22 22 21 21 21 21 21 21 21 21 21 21 21 21 20 20 20 20 20 20 20 19 19 19 19 19 19 19 19 19 19 18 18
24 21 21 22 23 25 26 26 25 25 23 23 22 20 20 21 21 21 21 21 21 21 21 21 21 21 21 21 21 20 20 20 20 19 19 19 20 19 19 19 19 19 19 19 19 19 19 18 18
23 20 22 23 23 24 26 26 26 24 23 23 22 19 19 20 21 21 21 21 21 21 21 20 20 21 21 21 21 20 20 19 19 19 19 19 19 19 19 18 18 18 18 18 18 18 18 18 18
24 20 22 22 24 25 26 26 26 25 24 23 23 21 19 21 21 21 21 20 20 20 20 20 20 20 20 20 20 20 20 19 19 19 19 19 19 19 19 18 18 18 18 18 18 18 18 18 18
23 19 21 23 24 25 26 26 26 26 24 23 23 24 24 22 21 20 20 19 19 20 20 20 20 20 20 20 19 19 19 19 19 19 19 19 19 19 19 18 18 18 18 18 18 18 18 18 18
22 19 21 23 25 25 25 26 26 24 23 23 23 23 23 21 20 20 20 20 19 20 20 20 20 20 20 19 19 19 19 19 19 19 19 19 19 19 18 18 18 18 17 17 18 18 18 18 18
22 20 22 23 25 25 25 26 27 24 23 24 24 23 22 21 20 21 21 21 21 20 20 20 20 20 20 20 19 19 19 19 19 19 19 19 18 18 18 18 18 18 18 18 17 17 18 18 18
22 22 23 25 26 25 26 26 26 25 27 28 27 26 24 22 22 22 22 21 20 20 20 20 20 20 20 20 20 20 20 19 19 19 19 18 18 18 18 18 17 17 17 17 18 18 17 17 18
22 22 24 25 26 26 26 25 26 27 28 27 26 25 24 24 24 23 22 21 21 20 20 20 20 20 20 20 20 19 19 19 19 19 18 18 18 18 18 18 17 17 17 17 17 18 17 17 18
23 23 24 25 26 25 26 26 25 27 27 26 25 24 24 23 22 21 21 21 21 21 20 20 20 20 20 20 20 20 19 19 19 18 18 18 18 18 18 18 18 18 17 17 17 17 17 18 18
23 22 22 24 25 26 26 25 25 27 26 24 23 22 22 22 22 22 22 22 21 21 21 21 20 20 20 20 20 20 19 18 18 18 18 18 18 18 18 18 18 17 17 17 17 17 17 18 18
22 21 22 22 23 25 25 25 25 26 24 22 22 21 21 22 22 22 22 22 22 21 21 21 21 21 20 20 20 19 19 18 18 18 18 18 18 18 18 17 18 17 17 17 17 17 17 17 18
19 20 21 21 22 23 24 23 23 23 22 21 21 21 22 22 22 22 22 22 21 21 21 21 21 21 21 20 20 19 19 18 18 18 18 18 17 17 17 17 18 18 18 18 18 18 17 17 17
21 21 21 21 22 23 22 21 20 21 21 20 20 20 21 22 22 21 21 21 21 21 21 21 20 20 20 20 19 19 18 18 18 18 17 17 17 17 17 17 18 18 18 18 18 17 17 17 17
21 21 20 21 22 22 21 19 18 19 20 19 19 19 19 20 19 20 20 20 20 20 20 19 19 19 19 19 18 18 18 18 17 17 17 17 17 17 18 18 18 18 18 17 17 17 17 17 17
21 21 20 21 21 22 21 19 18 18 18 18 18 18 19 19 19 19 19 20 20 20 20 19 19 19 19 19 19 18 18 18 18 17 17 17 17 18 18 18 18 17 17 17 16 16 16 16 16
21 21 20 21 21 20 21 19 18 17 17 17 17 17 18 18 19 20 20 20 20 20 20 19 19 19 19 19 18 18 18 18 17 17 18 18 18 18 18 18 17 17 17 16 16 16 15 15 16
21 21 21 21 20 18 20 19 18 15 16 16 16 16 17 18 18 18 18 18 18 19 19 19 19 19 19 18 18 18 18 18 18 18 18 18 17 17 17 17 17 17 16 16 15 15 15 15 15
21 21 20 20 20 18 18 18 16 15 16 16 15 15 16 16 17 17 17 17 17 18 19 19 19 19 19 18 17 17 17 17 17 17 17 17 17 17 17 17 17 16 15 15 15 15 14 14 15
20 19 17 15 16 17 18 17 16 15 16 16 15 16 16 17 17 17 17 17 17 17 18 18 19 19 18 17 16 16 16 16 16 16 16 16 16 16 16 16 16 15 15 15 14 14 14 14 14
18 17 15 16 15 16 16 16 15 16 15 15 15 15 16 17 17 17 16 16 16 16 17 17 17 17 17 16 16 15 15 15 15 16 16 16 16 16 16 15 15 15 15 14 14 14 14 14 14
17 16 15 16 15 14 15 15 15 16 15 15 15 15 15 16 16 16 16 15 15 15 15 16 16 16 15 15 15 14 14 14 15 15 15 16 15 15 15 14 14 14 14 14 14 14 13 13 13
17 15 15 13 14 13 13 14 14 15 14 14 14 14 15 16 16 16 16 15 15 14 14 15 15 15 15 14 14 13 13 14 14 15 15 14 14 14 14 14 14 14 13 13 14 13 13 13 13
16 14 12 13 14 13 13 13 13 15 14 13 13 14 15 16 16 16 16 15 15 14 14 14 14 14 14 14 13 13 13 14 14 14 14 13 13 13 14 14 14 13 13 13 13 13 13 13 13
15 14 12 11 12 12 12 13 13 14 14 13 13 15 15 15 16 15 15 15 15 14 14 14 14 14 14 13 13 13 13 13 13 13 13 13 14 13 13 13 13 12 13 13 13 13 13 13 13
15 13 12 13 13 11 11 12 14 13 12 12 13 15 15 15 15 14 14 14 14 14 14 14 14 13 13 13 13 13 13 13 13 13 13 14 14 13 13 13 12 12 12 12 12 12 12 12 12

GEFSSGP_850_meantemp_012.txt.gz
Temperature
23 21 20 21 27 31 31 31 31 30 30 29 29 29 29 29 29 27 22 22 21 21 21 21 20 19 19 19 20 20 20 19 19 19 19 19 19 19 19 19 19 19 19 19 19 19 19 19 19
22 21 21 26 31 32 31 30 30 30 29 28 28 27 28 28 25 23 22 21 21 21 21 21 21 20 19 20 20 20 20 19 19 19 19 19 19 19 19 19 19 19 19 19 19 19 19 19 19
23 22 25 31 32 31 31 31 30 29 28 28 28 28 28 27 23 22 22 21 21 20 20 22 21 20 20 20 20 20 20 20 19 19 19 19 19 19 19 19 19 19 19 19 19 19 19 19 18
22 24 28 32 32 31 31 31 31 30 29 28 28 28 26 23 22 22 21 21 20 20 20 21 21 21 20 20 20 20 20 20 20 20 20 19 19 19 19 19 19 19 19 19 19 19 19 19 19
23 28 31 32 32 32 32 31 30 31 30 29 28 29 26 22 21 21 21 21 20 20 19 20 21 21 20 20 20 20 20 20 20 20 20 19 19 19 19 19 19 19 19 19 19 19 19 19 18
27 30 31 32 31 31 32 30 31 31 29 28 28 28 26 22 21 21 21 21 21 20 20 19 21 21 20 20 20 20 20 20 20 20 19 19 19 19 19 19 19 19 19 19 19 18 18 18 18
29 31 32 32 31 31 31 30 31 31 30 29 28 29 27 23 22 22 21 21 21 21 20 19 20 21 20 20 20 20 20 20 20 20 20 19 19 19 19 19 19 19 19 19 19 18 18 18 18
28 31 31 32 31 31 31 31 30 31 30 28 27 29 28 24 22 22 21 21 21 21 20 19 19 19 20 20 20 20 20 20 20 19 19 19 19 19 19 19 19 19 18 18 18 18 18 18 18
26 30 31 32 31 31 31 31 30 29 29 27 28 28 26 24 22 21 21 21 20 20 20 20 19 19 19 19 19 20 20 20 19 19 19 19 18 18 18 18 18 19 18 18 18 18 18 18 18
28 30 31 30 31 31 30 30 31 30 30 29 28 27 24 23 22 21 21 21 20 20 19 19 19 19 19 19 19 19 19 19 19 18 18 18 18 18 18 18 19 19 18 18 18 18 18 18 17
29 30 30 30 29 29 30 31 30 31 32 31 30 28 24 23 22 21 21 21 20 20 19 19 19 18 19 18 19 19 18 18 18 18 18 18 18 18 18 18 18 18 18 18 18 18 18 18 18
28 29 28 29 29 29 30 30 31 31 32 31 29 28 25 24 23 22 21 21 20 20 19 19 19 19 19 19 18 18 18 18 19 18 18 18 18 18 18 18 18 18 18 18 18 18 18 17 17
28 29 28 28 29 29 29 30 30 31 31 29 28 27 25 25 24 22 22 21 20 19 19 19 18 19 19 19 19 18 19 19 19 18 18 18 18 18 18 18 18 18 18 18 18 18 18 18 18
28 28 28 29 29 29 30 31 31 31 30 28 27 27 26 25 24 23 22 21 20 19 19 19 19 20 20 19 19 18 19 19 19 19 18 18 18 18 18 18 18 18 18 18 18 18 18 18 18
27 28 30 30 29 30 30 31 31 29 28 28 28 27 26 25 24 23 21 20 20 19 19 19 19 20 20 19 19 18 18 19 19 18 18 18 18 18 18 18 18 18 18 18 18 18 18 18 18
28 29 29 30 30 29 30 31 31 28 28 28 28 26 25 23 23 22 21 20 20 20 19 19 19 19 19 19 19 18 18 19 18 18 18 18 18 18 18 18 18 18 18 18 18 18 18 18 18
28 29 29 29 29 29 30 30 29 27 28 28 26 25 24 23 22 21 20 20 20 19 19 19 19 19 19 19 19 19 19 19 18 18 18 18 18 18 18 18 18 18 18 18 18 18 18 18 18
28 28 28 28 29 28 29 29 28 27 27 26 25 24 23 22 21 20 20 20 20 19 19 19 19 19 20 19 19 19 19 19 18 18 18 18 18 18 18 18 18 18 18 18 18 18 18 18 18
27 27 27 28 28 28 28 28 27 26 26 25 24 23 22 21 20 19 19 19 19 19 19 20 20 19 20 19 19 19 19 19 19 18 18 18 18 18 18 18 18 18 18 18 18 18 17 17 17
27 27 27 27 27 27 27 27 27 25 24 23 22 22 21 21 20 19 19 19 19 19 18 19 19 19 20 20 20 20 19 19 19 18 18 18 18 18 18 18 17 17 17 17 17 17 17 17 17
26 26 26 26 27 27 27 27 27 25 24 23 22 21 21 20 20 20 19 19 18 18 18 18 18 18 19 19 19 19 19 19 18 18 18 18 18 18 18 17 17 17 17 17 17 17 17 16 16
26 26 26 26 26 27 27 26 28 27 25 24 23 22 21 21 20 20 19 19 18 17 17 17 17 18 18 18 18 18 18 18 18 18 18 18 17 17 17 16 16 16 16 16 16 16 16 16 16
26 26 25 25 25 26 27 26 27 26 26 25 24 23 22 21 20 19 19 18 18 17 17 16 17 17 17 17 17 17 17 17 17 17 17 17 16 16 15 15 15 15 15 16 16 16 16 15 15
26 25 26 25 26 25 26 25 26 27 26 25 24 23 22 21 20 20 19 18 18 17 17 16 16 16 16 16 16 16 16 16 16 16 16 16 16 15 15 14 14 14 15 15 16 15 15 15 15
26 25 25 25 25 26 25 24 26 25 24 24 24 23 22 21 20 20 19 18 18 17 17 16 16 16 16 16 16 16 16 16 16 15 15 15 15 15 15 15 14 14 15 15 15 15 15 14 15
25 24 23 22 23 24 25 24 26 24 24 23 22 22 21 21 20 19 18 18 17 17 16 16 15 15 15 15 15 15 15 15 15 15 15 15 15 15 15 14 14 14 14 14 14 14 14 14 14
25 25 24 23 23 23 24 25 25 24 23 23 22 22 21 21 20 19 18 17 17 16 16 15 15 15 15 15 15 15 15 14 14 14 14 14 14 14 14 14 14 14 14 14 14 14 14 14 14
25 25 24 23 22 22 24 24 24 24 24 24 23 22 22 21 20 19 18 17 16 15 15 15 14 14 14 14 14 14 14 14 14 13 13 13 13 13 13 13 13 13 13 13 14 13 13 13 13
24 23 23 23 22 21 22 24 25 24 24 23 23 22 21 20 20 18 17 16 15 15 14 14 14 14 14 14 13 13 13 13 13 13 13 13 13 13 13 13 13 13 13 12 12 13 13 13 13
24 24 23 22 22 22 22 23 25 24 24 23 22 22 21 19 18 17 17 16 15 14 14 14 13 13 13 13 13 12 12 12 12 12 12 12 12 12 12 12 12 12 12 12 12 12 12 12 12

GEFSSGP_850_meantemp_018.txt.gz
Temperature
25 23 22 24 27 28 29 33 34 34 34 33 33 33 33 31 29 27 27 26 24 24 24 23 22 21 21 20 20 20 20 20 19 19 19 19 19 19 19 19 19 19 19 19 19 19 20 20 20
25 23 25 27 29 27 30 34 33 33 33 33 32 33 33 30 29 27 26 25 24 24 24 23 22 22 21 20 20 20 20 20 19 19 19 19 19 19 19 19 19 19 19 19 19 19 19 19 20
25 24 27 30 31 29 31 34 34 34 33 33 33 32 31 29 28 27 26 25 23 23 24 24 23 22 21 20 20 20 19 19 19 19 19 19 19 19 19 19 19 19 19 19 19 19 19 19 19
24 27 29 31 32 33 34 34 35 34 34 33 33 32 29 27 28 27 25 24 23 22 23 24 23 22 21 20 20 20 19 19 19 19 19 19 19 19 19 19 19 19 19 19 19 19 19 19 19
27 29 32 33 33 35 35 35 35 34 34 33 33 32 28 27 27 26 25 24 23 22 22 23 23 22 22 21 20 20 20 19 19 19 19 19 19 19 19 19 19 19 19 19 19 19 19 19 19
29 32 32 32 33 35 35 35 35 34 34 33 33 32 28 27 26 26 25 24 23 22 22 23 23 22 22 21 20 20 20 20 20 20 20 19 19 19 19 19 19 19 19 19 19 19 19 19 19
30 32 32 33 33 35 35 35 34 34 33 33 33 32 28 27 26 26 25 25 24 23 22 23 23 22 22 21 21 20 20 20 20 20 19 19 19 19 19 19 19 19 19 19 19 19 19 19 19
30 32 32 34 34 35 35 35 35 34 33 33 33 32 29 27 26 26 25 25 25 23 22 23 23 22 22 21 21 21 20 20 20 20 20 19 19 19 19 19 19 19 19 19 19 19 19 19 19
30 31 31 34 34 35 35 35 35 34 34 32 33 32 30 28 27 26 25 25 25 24 22 22 22 22 22 22 21 21 21 20 20 20 20 20 20 19 19 19 19 19 19 19 19 19 19 19 19
31 31 33 35 35 35 35 34 35 35 34 33 33 31 29 27 27 26 26 25 25 24 23 22 22 21 21 21 20 21 21 21 20 20 20 19 19 19 18 18 18 19 19 19 19 19 19 19 19
32 32 33 35 34 34 34 34 35 35 34 33 32 30 29 28 27 26 26 25 25 24 24 23 22 21 21 20 20 20 20 20 20 20 19 19 19 19 19 19 19 19 19 19 19 19 19 19 18
33 33 33 34 33 33 34 34 34 34 34 33 32 30 29 28 28 27 26 25 24 24 23 23 22 21 21 21 21 20 20 20 20 20 19 19 19 19 19 19 19 19 19 19 19 19 19 19 18
32 32 32 33 33 33 33 33 34 34 34 33 32 31 30 30 29 27 26 25 25 23 23 23 22 21 20 20 21 20 20 21 20 20 20 20 19 19 19 19 19 19 19 19 19 19 19 19 19
32 32 32 32 33 33 33 33 33 34 34 33 32 32 31 31 30 28 26 25 25 23 22 22 22 21 20 20 20 20 20 21 21 21 20 20 20 19 19 19 19 19 19 19 19 19 19 19 19
31 31 32 33 33 33 33 33 34 34 34 33 32 32 31 31 30 28 27 25 25 23 23 22 21 20 20 20 20 20 20 20 21 21 21 20 20 19 19 19 19 19 19 19 19 19 19 19 19
32 31 31 33 34 34 32 31 34 34 33 33 32 32 31 29 29 28 27 25 25 24 23 22 21 21 20 20 19 19 20 20 21 21 21 21 20 20 19 19 19 19 19 19 19 19 19 19 19
31 31 32 33 34 33 32 32 33 33 33 32 31 31 30 28 27 27 26 25 24 23 23 22 21 21 20 20 20 20 20 20 21 21 21 21 20 20 19 19 19 19 19 19 19 19 19 19 19
31 32 32 33 34 33 31 31 33 33 32 31 31 30 29 27 26 25 24 24 23 23 22 22 21 20 20 20 20 20 20 20 20 20 20 21 20 20 19 19 19 19 19 19 19 19 19 19 19
30 30 31 32 33 32 30 30 32 33 32 31 30 28 27 26 25 23 23 23 22 22 22 21 20 20 20 20 19 19 19 20 20 20 20 20 20 20 20 19 19 19 19 19 19 19 19 19 19
30 30 30 31 32 31 30 30 31 32 32 30 29 27 26 25 24 23 22 22 21 21 21 20 20 19 19 19 19 19 19 19 19 19 20 20 19 19 19 19 19 19 19 19 19 19 19 18 18
30 30 30 29 30 30 29 29 30 32 31 29 28 27 26 25 24 23 22 21 21 20 20 20 19 19 19 19 19 19 19 19 19 19 19 19 19 19 19 19 19 19 18 18 18 18 18 18 18
28 30 29 28 28 28 29 28 30 31 30 28 27 26 25 25 24 23 23 22 21 20 20 19 19 19 19 18 18 18 18 18 18 19 18 19 19 19 18 18 18 18 18 18 18 17 17 16 17
28 29 28 28 27 27 28 28 29 30 27 26 25 24 24 25 24 23 23 22 21 20 20 19 19 18 18 18 18 17 17 18 18 18 18 18 18 18 18 18 18 18 18 17 17 16 16 16 16
29 28 28 28 28 26 27 26 27 28 27 25 25 25 25 25 24 24 23 22 21 20 20 19 18 18 17 17 17 17 17 17 17 17 17 17 17 17 17 17 17 17 17 16 16 16 15 15 15
28 27 26 26 26 26 26 26 27 28 28 27 26 26 25 25 24 24 23 22 21 20 20 19 18 17 17 16 16 16 16 16 16 16 16 16 16 16 16 16 16 16 16 15 15 15 15 15 14
27 27 25 24 25 26 27 27 28 29 28 27 27 26 26 25 25 24 23 22 21 21 20 19 18 17 16 16 16 16 16 16 16 16 16 16 16 16 15 15 15 15 15 15 15 15 15 15 15
27 27 28 26 26 26 27 28 28 28 27 27 27 26 26 26 25 24 24 22 21 20 19 18 17 16 16 15 15 15 15 15 15 15 15 15 15 15 15 15 15 15 15 15 15 14 14 14 14
28 28 26 25 24 24 25 26 26 26 26 27 27 27 26 26 25 24 23 22 21 20 19 17 17 16 15 15 15 14 14 14 14 14 14 15 15 15 15 14 14 14 14 14 14 14 14 14 14
27 27 26 26 25 23 23 25 28 27 27 27 27 26 26 25 25 24 23 21 20 19 18 17 16 15 15 14 14 14 14 14 14 14 13 14 14 14 14 14 14 14 14 14 14 14 14 14 14
28 27 27 25 24 24 24 25 28 27 27 27 26 26 25 24 24 23 22 21 20 19 18 17 16 15 14 14 14 13 13 13 13 13 13 13 13 13 13 13 13 13 13 13 14 14 13 13 13

GEFSSGP_850_meantemp_024.txt.gz
Temperature
24 23 23 21 21 21 24 27 29 29 29 29 29 28 27 26 25 24 23 23 23 22 22 22 22 22 22 21 21 21 20 20 20 20 20 20 20 20 20 20 20 20 20 20 20 20 20 20 20
24 24 23 22 22 23 25 28 29 30 30 29 29 28 27 25 24 23 23 23 23 23 22 22 22 22 22 21 21 20 20 20 20 20 20 20 20 20 20 20 20 20 20 20 20 20 20 20 20
25 24 23 21 23 24 25 28 29 31 31 30 29 28 27 26 24 24 24 23 23 23 23 22 22 22 21 21 21 20 20 20 20 20 20 20 20 20 20 20 20 20 20 20 20 20 20 20 20
25 24 24 22 24 26 27 28 29 30 31 30 28 27 27 26 25 25 24 23 23 23 23 22 22 22 21 21 21 20 20 20 20 20 20 20 20 20 20 20 20 20 20 20 20 20 20 20 20
25 24 22 22 25 28 28 28 29 30 30 29 27 26 26 26 26 25 24 24 24 23 23 22 22 22 22 21 21 20 20 20 20 20 20 20 20 20 20 20 20 20 20 20 20 20 20 20 20
25 23 22 23 26 29 29 29 29 30 29 28 27 25 24 25 25 25 24 24 24 24 23 23 22 22 22 21 21 21 20 20 20 20 20 20 20 20 20 20 20 20 20 20 20 20 20 20 20
25 22 23 25 26 28 30 30 30 29 29 29 28 25 24 24 25 24 24 24 24 24 24 23 23 22 22 21 21 21 21 21 21 20 20 20 20 20 20 20 20 20 20 20 20 20 20 20 20
27 22 24 25 27 28 30 31 31 30 30 30 29 25 24 24 25 24 24 24 24 24 24 24 23 23 22 22 22 21 21 21 21 21 20 20 20 20 20 20 20 20 20 20 20 20 19 19 19
27 22 23 25 27 28 30 31 31 31 31 30 29 29 28 26 25 24 23 23 23 23 23 23 23 23 23 22 22 22 21 21 21 21 21 20 20 20 20 20 19 19 19 19 19 19 19 19 19
26 22 24 27 28 28 30 31 31 30 29 28 28 28 27 26 25 24 24 23 23 23 23 23 23 23 23 22 22 22 22 21 21 21 21 21 20 20 20 20 19 19 19 19 19 19 19 19 19
26 25 26 28 30 30 30 31 32 30 28 28 27 27 26 26 25 25 25 25 24 24 23 23 23 23 23 23 22 22 22 21 21 21 21 21 20 20 20 20 20 19 19 18 19 19 19 19 19
27 26 28 29 30 31 31 31 31 30 30 29 29 28 27 26 26 26 25 25 25 24 23 23 23 22 22 22 22 22 21 21 21 21 21 20 20 20 20 20 20 19 19 19 19 19 19 19 19
26 26 29 30 30 30 31 30 31 31 31 29 29 28 28 27 27 26 26 25 25 24 24 23 22 22 22 22 22 21 21 21 20 20 20 20 20 20 20 20 19 19 19 19 19 19 19 19 19
27 28 29 30 30 30 29 29 30 31 31 29 28 28 28 28 27 26 25 25 25 24 24 23 23 22 21 21 21 21 21 20 20 20 20 20 20 20 20 20 19 19 19 19 19 19 19 19 18
27 26 26 27 28 29 29 27 28 31 30 29 28 28 27 27 26 26 26 25 25 24 24 23 23 22 22 21 21 20 20 20 20 19 19 20 20 20 20 20 20 19 19 19 19 19 19 19 18
25 25 24 25 26 28 27 26 28 30 30 28 27 26 26 26 26 25 25 25 24 24 23 23 22 22 21 21 21 20 20 20 19 19 19 19 19 19 19 19 20 20 19 19 19 19 18 18 18
23 23 24 25 27 27 26 26 28 29 29 27 26 25 25 24 24 24 24 24 23 23 23 22 21 21 21 20 20 19 19 19 19 19 19 19 19 19 19 19 19 19 19 19 19 19 18 18 18
23 24 25 25 27 27 26 27 27 29 28 26 25 24 24 24 23 23 23 23 23 22 22 21 21 20 20 20 19 19 19 19 19 19 19 19 19 19 19 19 19 19 19 19 19 18 18 18 19
25 25 25 26 26 25 25 26 26 27 26 25 23 23 22 22 23 23 23 22 22 22 21 21 21 20 20 20 19 19 19 19 19 19 19 19 19 19 19 19 19 19 18 18 18 18 18 18 18
26 25 24 25 26 26 25 24 24 24 24 23 22 22 22 22 23 23 23 23 22 22 21 21 21 20 20 19 19 19 18 18 18 19 19 19 19 19 19 19 19 18 18 18 18 18 18 18 18
25 25 25 24 24 24 24 22 22 22 22 22 21 21 22 22 23 23 23 23 23 22 22 21 21 21 20 20 19 19 18 18 18 18 18 18 18 18 18 18 18 18 18 18 18 18 18 18 18
24 25 25 24 22 21 22 20 21 21 21 20 21 21 22 22 23 23 23 23 23 23 22 22 21 20 20 19 19 18 18 18 17 17 17 17 17 17 18 18 18 18 18 18 18 18 18 17 17
26 26 25 24 22 21 21 21 20 20 20 20 20 21 22 23 23 23 23 23 23 22 22 21 21 20 19 19 18 18 17 17 17 17 17 17 17 17 17 17 17 17 17 17 17 17 17 17 17
26 24 22 20 19 20 21 21 20 19 20 20 20 21 22 23 23 23 23 23 23 22 21 21 20 20 19 18 18 17 17 16 16 16 17 17 17 17 17 16 16 16 16 16 17 17 16 16 16
24 20 18 19 18 19 20 20 19 20 21 20 20 22 23 23 23 23 23 23 22 22 21 20 20 19 19 18 17 17 16 16 16 16 16 16 16 16 16 16 16 16 16 16 16 16 16 16 15
25 20 19 19 19 18 20 20 20 21 22 22 23 23 23 24 24 23 23 23 22 21 21 20 20 19 18 18 17 16 16 15 15 15 15 15 15 15 15 15 15 15 15 15 15 15 15 15 15
25 22 19 18 19 19 20 21 21 21 21 21 22 22 23 23 23 23 23 22 22 21 21 20 20 19 18 17 17 16 15 15 15 15 15 14 14 14 14 14 15 15 15 15 15 15 15 14 14
24 22 18 19 19 18 19 20 20 21 21 21 20 22 23 23 23 23 23 22 22 21 21 20 20 19 18 17 16 15 15 15 14 14 14 14 14 14 14 14 14 14 14 14 14 14 14 14 14
23 23 20 17 17 17 17 18 20 20 20 21 21 23 23 23 23 23 22 22 22 21 20 20 20 19 18 17 16 15 15 14 14 14 13 13 13 13 13 13 13 13 13 14 14 14 14 14 14
23 22 19 18 18 17 16 18 20 19 19 19 20 21 21 22 22 22 22 22 21 21 20 20 20 19 18 17 16 15 14 14 14 13 13 12 12 12 12 12 12 13 13 13 13 13 13 13 13